Zurück zum Katalog

FLOCK 4BE 14

AktivWissenschaftSSO
NORAD 60517·PAYLOAD·🇺🇸 United States

Gestartet Aug 16, 2024 von Vandenberg Space Force Base

Loading…

Nächste Überflüge (nächste 24 Stunden)

TLE

AktuellSource: CelesTrak SupGP

Epoche: Sep 14, 2026, 06:45 UTC

1 60517C 24149AG  26257.28133102  .00043367  00000+0  95365-3 0  2571
2 60517  97.3650 341.9709 0003244 343.9744 216.4112 15.43984933    18

Verfolge FLOCK 4BE 14 in Echtzeit mit AllMySat

Download on the App Store